FW3769 Weather Reports


time (UTC)temp
C
wind
direction
speed
KPH
gust
KPH
rain 1hr
cm
rain 24hr
cm
rain mn
cm
humidity
%
barometer
mb
20260906215202 29 228 0.0 0.0 0.00 0.00 0.00 36 1023.7
20260906214701 29 108 0.0 0.0 0.00 0.00 0.00 35 1023.7
20260906214156 28 138 0.0 0.0 0.00 0.00 0.00 35 1024.1
20260906213655 29 198 0.0 0.0 0.00 0.00 0.00 35 1024.1
20260906213150 29 210 0.0 0.0 0.00 0.00 0.00 34 1024.1
20260906212647 28 216 0.0 0.0 0.00 0.00 0.00 35 1023.7
20260906212144 28 252 0.0 0.0 0.00 0.00 0.00 36 1023.7
20260906211643 28 138 0.0 0.0 0.00 0.00 0.00 37 1023.7
20260906211138 29 144 0.0 0.0 0.00 0.00 0.00 36 1023.7
20260906210634 29 240 0.0 0.0 0.00 0.00 0.00 36 1023.7
20260906210134 28 198 0.0 0.0 0.00 0.00 0.00 36 1023.7
20260906205629 29 216 0.0 0.0 0.00 0.00 0.00 35 1024.1
20260906205126 28 186 0.0 0.0 0.00 0.00 0.00 36 1024.1
20260906204625 28 192 0.0 0.0 0.00 0.00 0.00 38 1024.1
20260906204120 28 156 0.0 0.0 0.00 0.00 0.00 38 1024.1
20260906203620 29 198 0.0 0.0 0.00 0.00 0.00 37 1024.1
20260906203114 28 300 0.0 0.0 0.00 0.00 0.00 39 1024.1
20260906202611 28 234 0.0 0.0 0.00 0.00 0.00 39 1024.1
20260906202111 28 138 0.0 0.0 0.00 0.00 0.00 38 1024.1
20260906201606 29 210 0.0 0.0 0.00 0.00 0.00 38 1024.1
20260906201105 28 210 0.0 0.0 0.00 0.00 0.00 38 1024.6
20260906200601 29 148 0.0 0.0 0.00 0.00 0.00 35 1024.6
20260906200057 28 120 0.0 0.0 0.00 0.00 0.00 37 1024.6
20260906195552 28 246 0.0 0.0 0.00 0.00 0.00 36 1024.6
20260906195048 29 162 0.0 0.0 0.00 0.00 0.00 35 1024.6
20260906194544 28 122 0.0 0.0 0.00 0.00 0.00 36 1024.6
20260906194040 29 240 0.0 0.0 0.00 0.00 0.00 34 1024.6
20260906193539 28 192 0.0 0.0 0.00 0.00 0.00 36 1024.6
20260906193035 28 180 0.0 0.0 0.00 0.00 0.00 36 1025.0
20260906192530 28 48 0.0 0.0 0.00 0.00 0.00 35 1025.0
20260906192029 27 126 0.0 0.0 0.00 0.00 0.00 36 1025.0
20260906191524 28 300 0.0 0.0 0.00 0.00 0.00 36 1025.4
20260906191023 28 167 0.0 0.0 0.00 0.00 0.00 36 1025.4
20260906190523 28 198 0.0 0.0 0.00 0.00 0.00 35 1025.4
20260906190018 28 42 0.0 0.0 0.00 0.00 0.00 36 1025.4
20260906185517 28 42 0.0 0.0 0.00 0.00 0.00 35 1025.4
20260906185016 28 330 0.0 0.0 0.00 0.00 0.00 36 1025.4
20260906184512 28 324 0.0 0.0 0.00 0.00 0.00 37 1025.8
20260906184007 27 102 0.0 0.0 0.00 0.00 0.00 37 1025.8
20260906183503 27 150 0.0 0.0 0.00 0.00 0.00 39 1025.8
20260906182958 27 168 0.0 0.0 0.00 0.00 0.00 37 1026.2
20260906182453 27 167 0.0 0.0 0.00 0.00 0.00 37 1026.2
20260906181949 27 155 0.0 0.0 0.00 0.00 0.00 37 1026.2
20260906181444 27 162 0.0 0.0 0.00 0.00 0.00 37 1026.7
20260906180940 27 174 0.0 0.0 0.00 0.00 0.00 36 1026.7
20260906180435 27 144 0.0 0.0 0.00 0.00 0.00 37 1026.7
20260906175933 27 6 0.0 0.0 0.00 0.00 0.00 37 1026.2
20260906175433 27 96 0.0 0.0 0.00 0.00 0.00 39 1026.2
20260906174931 27 144 0.0 0.0 0.00 0.00 0.00 37 1026.2
20260906174426 27 180 0.0 0.0 0.00 0.00 0.00 39 1026.7
20260906173921 27 108 0.0 0.0 0.00 0.00 0.00 38 1026.7
20260906173416 26 154 0.0 0.0 0.00 0.00 0.00 37 1026.7
20260906172915 26 180 0.0 0.0 0.00 0.00 0.00 38 1026.7
20260906172412 26 102 0.0 0.0 0.00 0.00 0.00 36 1026.7
20260906171907 26 222 0.0 0.0 0.00 0.00 0.00 37 1026.7
20260906171401 26 168 0.0 0.0 0.00 0.00 0.00 38 1027.0
20260906170857 26 138 0.0 0.0 0.00 0.00 0.00 37 1027.0
20260906170353 26 48 0.0 0.0 0.00 0.00 0.00 38 1027.0
20260906165850 26 216 0.0 0.0 0.00 0.00 0.00 38 1027.0
20260906165349 26 161 0.0 0.0 0.00 0.00 0.00 37 1027.0
20260906164844 26 180 0.0 0.0 0.00 0.00 0.00 38 1027.0
20260906164343 26 210 0.0 0.0 0.00 0.00 0.00 39 1026.7
20260906163839 25 155 0.0 0.0 0.00 0.00 0.00 39 1026.7
20260906163335 25 180 0.0 0.0 0.00 0.00 0.00 39 1026.7
20260906162832 26 198 0.0 0.0 0.00 0.00 0.00 37 1027.0
20260906162331 26 162 0.0 0.0 0.00 0.00 0.00 39 1027.0
20260906161827 26 240 0.0 0.0 0.00 0.00 0.00 37 1027.0
20260906161326 26 192 0.0 0.0 0.00 0.00 0.00 37 1027.0
20260906160825 26 204 0.0 0.0 0.00 0.00 0.00 38 1027.0
20260906160319 26 228 0.0 0.0 0.00 0.00 0.00 38 1027.0
20260906155817 26 198 0.0 0.0 0.00 0.00 0.00 37 1026.7
20260906155311 25 234 0.0 0.0 0.00 0.00 0.00 36 1026.7
20260906154807 26 276 0.0 0.0 0.00 0.00 0.00 36 1026.7
20260906154256 25 138 0.0 0.0 0.00 0.00 0.00 36 1026.7
20260906153754 26 12 0.0 0.0 0.00 0.00 0.00 36 1026.7
20260906153249 25 60 0.0 0.0 0.00 0.00 0.00 38 1026.7
20260906152744 25 348 0.0 0.0 0.00 0.00 0.00 38 1026.7
20260906152239 25 24 0.0 0.0 0.00 0.00 0.00 40 1026.7
20260906151738 25 12 0.0 0.0 0.00 0.00 0.00 38 1026.7
20260906151234 24 102 0.0 0.0 0.00 0.00 0.00 40 1026.7
20260906150729 23 330 0.0 0.0 0.00 0.00 0.00 42 1026.7
20260906150226 23 7 0.0 0.0 0.00 0.00 0.00 42 1026.7
20260906145724 22 12 0.0 0.0 0.00 0.00 0.00 45 1026.7
20260906145223 22 14 0.0 0.0 0.00 0.00 0.00 45 1026.7
20260906144719 22 348 0.0 0.0 0.00 0.00 0.00 46 1026.7
20260906144213 21 354 0.0 0.0 0.00 0.00 0.00 47 1026.7
20260906143712 21 36 0.0 0.0 0.00 0.00 0.00 47 1026.7
20260906143210 20 14 0.0 0.0 0.00 0.00 0.00 50 1026.7
20260906142709 20 36 0.0 0.0 0.00 0.00 0.00 52 1026.7
20260906142205 19 12 0.0 0.0 0.00 0.00 0.00 53 1026.7
20260906141703 19 24 0.0 0.0 0.00 0.00 0.00 53 1026.7
20260906141158 18 356 0.0 0.0 0.00 0.00 0.00 53 1026.7
20260906140657 18 24 0.0 0.0 0.00 0.00 0.00 53 1026.7
20260906140153 18 1 0.0 0.0 0.00 0.00 0.00 54 1026.7
20260906135649 18 352 0.0 0.0 0.00 0.00 0.00 55 1026.7
20260906135145 18 2 0.0 0.0 0.00 0.00 0.00 55 1026.7
20260906134641 18 0 0.0 0.0 0.00 0.00 0.00 54 1026.7
20260906134136 18 18 0.0 0.0 0.00 0.00 0.00 54 1026.2
20260906133632 17 355 0.0 0.0 0.00 0.00 0.00 55 1026.2
20260906133126 17 34 0.0 0.0 0.00 0.00 0.00 55 1026.2
20260906132621 17 24 0.0 0.0 0.00 0.00 0.00 56 1026.2
20260906132117 17 355 0.0 0.0 0.00 0.00 0.00 56 1026.2
20260906131613 16 30 0.0 0.0 0.00 0.00 0.00 57 1026.2
20260906131108 16 36 0.0 0.0 0.00 0.00 0.00 58 1026.2
20260906130602 16 18 0.0 0.0 0.00 0.00 0.00 58 1026.2
20260906130057 16 18 0.0 0.0 0.00 0.00 0.00 58 1026.7
20260906125555 16 24 0.0 0.0 0.00 0.00 0.00 60 1026.7
20260906125054 16 18 0.0 0.0 0.00 0.00 0.00 59 1026.7
20260906124550 16 36 0.0 0.0 0.00 0.00 0.00 60 1026.2
20260906124045 15 36 0.0 0.0 0.00 0.00 0.00 60 1026.2
20260906123544 16 18 0.0 0.0 0.00 0.00 0.00 62 1026.2
20260906123039 16 48 0.0 0.0 0.00 0.00 0.00 58 1026.2
20260906122538 16 36 0.0 0.0 0.00 0.00 0.00 55 1026.2
20260906122035 17 18 0.0 0.0 0.00 0.00 0.00 55 1026.2
20260906121525 17 9 0.0 0.0 0.00 0.00 0.00 54 1025.8
20260906121021 17 12 0.0 0.0 0.00 0.00 0.00 55 1025.8
20260906120521 17 356 0.0 0.0 0.00 0.00 0.00 56 1025.8
20260906120019 17 12 0.0 0.0 0.00 0.00 0.00 55 1025.8
20260906115513 17 15 0.0 0.0 0.00 0.00 0.00 55 1025.8
20260906115008 17 24 0.0 0.0 0.00 0.00 0.00 56 1025.8
20260906114502 17 348 0.0 0.0 0.00 0.00 0.00 55 1026.2
20260906113958 16 6 0.0 0.0 0.00 0.00 0.00 56 1026.2
20260906113456 16 15 0.0 0.0 0.00 0.00 0.00 57 1026.2
20260906112952 16 12 0.0 0.0 0.00 0.00 0.00 57 1025.8
20260906112447 16 8 0.0 0.0 0.00 0.00 0.00 58 1025.8
20260906111943 16 352 0.0 0.0 0.00 0.00 0.00 58 1025.8
20260906111442 16 42 0.0 0.0 0.00 0.00 0.00 57 1025.8
20260906110938 16 28 0.0 0.0 0.00 0.00 0.00 57 1025.8
20260906110433 16 24 0.0 0.0 0.00 0.00 0.00 59 1025.8
20260906105932 16 348 0.0 0.0 0.00 0.00 0.00 59 1025.4
20260906105428 16 28 0.0 0.0 0.00 0.00 0.00 61 1025.4
20260906104924 15 24 0.0 0.0 0.00 0.00 0.00 62 1025.4
20260906104422 15 12 0.0 0.0 0.00 0.00 0.00 66 1025.8
20260906103921 15 40 0.0 0.0 0.00 0.00 0.00 68 1025.8
20260906103420 15 348 0.0 0.0 0.00 0.00 0.00 68 1025.8
20260906102916 15 330 0.0 0.0 0.00 0.00 0.00 71 1025.8
20260906102415 15 30 0.0 0.0 0.00 0.00 0.00 69 1025.8
20260906101909 16 6 0.0 0.0 0.00 0.00 0.00 65 1025.8
20260906101405 16 42 0.0 0.0 0.00 0.00 0.00 62 1025.8
20260906100901 16 64 0.0 0.0 0.00 0.00 0.00 64 1025.8
20260906100400 16 9 0.0 0.0 0.00 0.00 0.00 65 1025.8
20260906095854 15 12 0.0 0.0 0.00 0.00 0.00 67 1026.2
20260906095350 15 18 0.0 0.0 0.00 0.00 0.00 73 1026.2
20260906094849 14 18 0.0 0.0 0.00 0.00 0.00 75 1026.2
20260906094345 15 12 0.0 0.0 0.00 0.00 0.00 75 1025.8
20260906093841 15 348 0.0 0.0 0.00 0.00 0.00 72 1025.8
20260906093337 16 60 0.0 0.0 0.00 0.00 0.00 70 1025.8
20260906092831 16 48 0.0 0.0 0.00 0.00 0.00 67 1025.8
20260906092331 16 6 0.0 0.0 0.00 0.00 0.00 69 1025.8
20260906091821 17 3 0.0 0.0 0.00 0.00 0.00 66 1025.8
20260906091317 17 9 0.0 0.0 0.00 0.00 0.00 63 1025.8
20260906090814 17 48 0.0 0.0 0.00 0.00 0.00 64 1025.8
20260906090312 17 336 0.0 0.0 0.00 0.00 0.00 65 1025.8
20260906085812 17 14 0.0 0.0 0.00 0.00 0.00 66 1025.8
20260906085311 17 20 0.0 0.0 0.00 0.00 0.00 67 1025.8
20260906084801 17 24 0.0 0.0 0.00 0.00 0.00 67 1025.8
20260906084300 17 356 0.0 0.0 0.00 0.00 0.00 67 1025.8
20260906083755 16 9 0.0 0.0 0.00 0.00 0.00 68 1025.8
20260906083250 16 355 0.0 0.0 0.00 0.00 0.00 70 1025.8
20260906082745 15 72 0.0 0.0 0.00 0.00 0.00 75 1025.8
20260906082240 15 48 0.0 0.0 0.00 0.00 0.00 76 1025.8
20260906081737 16 40 0.0 0.0 0.00 0.00 0.00 73 1025.8
20260906081236 17 0 0.0 0.0 0.00 0.00 0.00 70 1025.8
20260906080733 17 348 0.0 0.0 0.00 0.00 0.00 71 1025.8
20260906080229 17 36 0.0 0.0 0.00 0.00 0.00 71 1025.8
20260906075723 17 48 0.0 0.0 0.00 0.00 0.00 72 1026.2
20260906075218 17 329 0.0 0.0 0.00 0.00 0.00 72 1026.2
20260906074713 16 357 0.0 0.0 0.00 0.00 0.00 72 1026.2
20260906074212 16 24 0.0 0.0 0.00 0.00 0.00 73 1026.2
20260906073707 16 30 0.0 0.0 0.00 0.00 0.00 73 1026.2
20260906073202 16 354 0.0 0.0 0.00 0.00 0.00 73 1026.2
20260906072658 17 0 0.0 0.0 0.00 0.00 0.00 72 1026.2
20260906072154 17 6 0.0 0.0 0.00 0.00 0.00 73 1026.2
20260906071650 17 352 0.0 0.0 0.00 0.00 0.00 72 1026.2
20260906071149 17 19 0.0 0.0 0.00 0.00 0.00 71 1026.7
20260906070646 17 6 0.0 0.0 0.00 0.00 0.00 71 1026.7
20260906070141 17 352 0.0 0.0 0.00 0.00 0.00 71 1026.7
20260906065641 17 330 0.0 0.0 0.00 0.00 0.00 72 1026.7
20260906065136 17 348 0.0 0.0 0.00 0.00 0.00 72 1026.7
20260906064632 17 6 0.0 0.0 0.00 0.00 0.00 72 1026.7
20260906064127 17 54 0.0 0.0 0.00 0.00 0.00 73 1026.7
20260906063622 16 24 0.0 0.0 0.00 0.00 0.00 73 1026.7
20260906063118 16 42 0.0 0.0 0.00 0.00 0.00 74 1026.7
20260906062613 16 30 0.0 0.0 0.00 0.00 0.00 75 1026.7
20260906062112 16 344 0.0 0.0 0.00 0.00 0.00 73 1026.7
20260906061609 17 30 0.0 0.0 0.00 0.00 0.00 71 1026.7
20260906061108 17 0 0.0 0.0 0.00 0.00 0.00 72 1025.8
20260906060605 17 343 0.0 0.0 0.00 0.00 0.00 72 1025.8
20260906055557 16 357 0.0 0.0 0.00 0.00 0.00 74 1025.8
20260906055052 17 30 0.0 0.0 0.00 0.00 0.00 74 1025.8
20260906054552 17 26 0.0 0.0 0.00 0.00 0.00 73 1026.2
20260906054048 17 72 0.0 0.0 0.00 0.00 0.00 73 1026.2
20260906053544 17 2 0.0 0.0 0.00 0.00 0.00 74 1026.2
20260906053039 17 3 0.0 0.0 0.00 0.00 0.00 74 1025.8
20260906052535 17 18 0.0 0.0 0.00 0.00 0.00 73 1025.8
20260906052032 17 0 0.0 0.0 0.00 0.00 0.00 73 1025.8
20260906051527 17 54 0.0 0.0 0.00 0.00 0.00 73 1025.8
20260906051023 17 54 0.0 0.0 0.00 0.00 0.00 73 1025.8
20260906050517 18 352 0.0 0.0 0.00 0.00 0.00 71 1025.8
20260906050012 18 348 0.0 0.0 0.00 0.00 0.00 71 1026.2
20260906045510 18 356 0.0 0.0 0.00 0.00 0.00 70 1026.2
20260906045006 18 48 0.0 0.0 0.00 0.00 0.00 70 1026.2
20260906044501 18 355 0.0 0.0 0.00 0.00 0.00 69 1026.7
20260906043957 19 330 0.0 0.0 0.00 0.00 0.00 69 1026.7
20260906043453 19 301 0.0 0.0 0.00 0.00 0.00 69 1026.7
20260906042949 19 352 0.0 0.0 0.00 0.00 0.00 69 1026.2
20260906042447 19 343 0.0 0.0 0.00 0.00 0.00 69 1026.2
20260906041942 19 120 0.0 0.0 0.00 0.00 0.00 69 1026.2
20260906041438 19 86 0.0 0.0 0.00 0.00 0.00 69 1026.7
20260906040937 20 342 0.0 0.0 0.00 0.00 0.00 68 1026.7
20260906040433 20 336 0.0 0.0 0.00 0.00 0.00 68 1026.7
20260906035928 20 20 0.0 0.0 0.00 0.00 0.00 67 1026.2
20260906035428 20 36 0.0 0.0 0.00 0.00 0.00 66 1026.2
20260906034924 20 120 0.0 0.0 0.00 0.00 0.00 66 1026.2
20260906034419 20 114 0.0 0.0 0.00 0.00 0.00 66 1026.2
20260906033914 20 154 0.0 0.0 0.00 0.00 0.00 66 1026.2
20260906033409 20 244 0.0 0.0 0.00 0.00 0.00 65 1026.2
20260906032904 21 226 0.0 0.0 0.00 0.00 0.00 64 1026.2
20260906032401 21 214 0.0 0.0 0.00 0.00 0.00 63 1026.2
20260906031855 21 180 0.0 0.0 0.00 0.00 0.00 63 1026.2
20260906031350 21 180 0.0 0.0 0.00 0.00 0.00 62 1025.8
20260906030845 21 130 0.0 0.0 0.00 0.00 0.00 62 1025.8
20260906030341 21 136 0.0 0.0 0.00 0.00 0.00 62 1025.8
20260906025840 22 54 0.0 0.0 0.00 0.00 0.00 62 1025.4
20260906025329 22 65 0.0 0.0 0.00 0.00 0.00 61 1025.4
20260906024828 22 150 0.0 0.0 0.00 0.00 0.00 60 1025.4
20260906024327 22 192 0.0 0.0 0.00 0.00 0.00 60 1025.4
20260906023823 22 222 0.0 0.0 0.00 0.00 0.00 60 1025.4
20260906023318 22 216 0.0 0.0 0.00 0.00 0.00 60 1025.4
20260906022814 22 54 0.0 0.0 0.00 0.00 0.00 58 1025.4
20260906022309 23 78 0.0 0.0 0.00 0.00 0.00 56 1025.4
20260906021805 22 172 0.0 0.0 0.00 0.00 0.00 48 1025.4
20260906021304 22 48 0.0 0.0 0.00 0.00 0.00 40 1024.6
20260906020759 22 306 0.0 0.0 0.00 0.00 0.00 39 1024.6
20260906020258 23 36 0.0 0.0 0.00 0.00 0.00 38 1024.6
20260906015759 23 0 0.0 0.0 0.00 0.00 0.00 38 1025.0
20260906015257 23 30 0.0 0.0 0.00 0.00 0.00 37 1025.0
20260906014752 23 1 0.0 0.0 0.00 0.00 0.00 37 1025.0
20260906014247 23 36 0.0 0.0 0.00 0.00 0.00 36 1024.6
20260906013743 23 24 0.0 0.0 0.00 0.00 0.00 36 1024.6
20260906013243 23 36 0.0 0.0 0.00 0.00 0.00 36 1024.6
20260906012739 24 301 0.0 0.0 0.00 0.00 0.00 35 1024.6
20260906012234 25 336 0.0 0.0 0.00 0.00 0.00 35 1024.6
20260906011729 25 36 0.0 0.0 0.00 0.00 0.00 34 1024.6
20260906011229 25 348 0.0 0.0 0.00 0.00 0.00 34 1024.6
20260906010724 25 6 0.0 0.0 0.00 0.00 0.00 34 1024.6
20260906010220 25 36 0.0 0.0 0.00 0.00 0.00 34 1024.6
20260906005715 25 36 0.0 0.0 0.00 0.00 0.00 34 1025.0
20260906005215 25 6 0.0 0.0 0.00 0.00 0.00 34 1025.0
20260906004713 26 30 0.0 0.0 0.00 0.00 0.00 34 1025.0
20260906004209 26 318 0.0 0.0 0.00 0.00 0.00 34 1025.0
20260906003704 25 18 0.0 0.0 0.00 0.00 0.00 35 1025.0
20260906003200 25 12 0.0 0.0 0.00 0.00 0.00 35 1025.0
20260906002659 25 336 0.0 0.0 0.00 0.00 0.00 34 1024.6
20260906002154 25 90 0.0 0.0 0.00 0.00 0.00 34 1024.6
20260906001650 25 288 0.0 0.0 0.00 0.00 0.00 34 1024.6
20260906001149 26 348 0.0 0.0 0.00 0.00 0.00 34 1025.0
20260906000645 26 330 0.0 0.0 0.00 0.00 0.00 33 1025.0
20260906000141 26 14 0.0 0.0 0.00 0.00 0.00 33 1025.0
20260905235639 26 324 0.0 0.0 0.00 0.00 0.00 31 1025.0
20260905235135 26 300 0.0 0.0 0.00 0.00 0.00 32 1025.0
20260905234630 26 228 0.0 0.0 0.00 0.00 0.00 32 1025.0
20260905234126 26 30 0.0 0.0 0.00 0.00 0.00 31 1024.6
20260905233626 27 18 0.0 0.0 0.00 0.00 0.00 32 1024.6
20260905233120 27 348 0.0 0.0 0.00 0.00 0.00 31 1024.6
20260905232616 27 84 0.0 0.0 0.00 0.00 0.00 29 1024.6
20260905232112 27 330 0.0 0.0 0.00 0.00 0.00 30 1024.6
20260905231611 27 330 0.0 0.0 0.00 0.00 0.00 28 1024.6
20260905231108 26 48 0.0 0.0 0.00 0.00 0.00 31 1024.6
20260905230603 26 14 0.0 0.0 0.00 0.00 0.00 31 1024.6
20260905225600 26 7 0.0 0.0 0.00 0.00 0.00 32 1024.6
20260905225056 26 18 0.0 0.0 0.00 0.00 0.00 31 1024.6
20260905224555 27 12 0.0 0.0 0.00 0.00 0.00 33 1024.6
20260905224054 26 0 0.0 0.0 0.00 0.00 0.00 32 1025.0
20260905223552 25 60 0.0 0.0 0.00 0.00 0.00 34 1025.0
20260905223049 25 18 0.0 0.0 0.00 0.00 0.00 36 1025.0
20260905222548 25 348 0.0 0.0 0.00 0.00 0.00 35 1025.0
20260905222044 25 336 0.0 0.0 0.00 0.00 0.00 35 1025.0
20260905221540 25 348 0.0 0.0 0.00 0.00 0.00 34 1025.0
20260905221036 25 353 0.0 0.0 0.00 0.00 0.00 34 1025.4
20260905220531 25 66 0.0 0.0 0.00 0.00 0.00 34 1025.4
20260905220027 25 0 0.0 0.0 0.00 0.00 0.00 34 1025.4
20260905215526 26 306 0.0 0.0 0.00 0.00 0.00 34 1025.0